Regional Weather Roundup
Issued by NWS Boston, MA

Current Version | Previous Version | Text Only | Print | Product List | Glossary Off
Versions: 1 2 3 4 5 6 7 8 9 10 11 12 13 14 15 16 17 18 19 20 21 22 23 24 25 26 27
000 ASUS41 KBOX 222110 RWRBOX REGIONAL WEATHER ROUNDUP NATIONAL WEATHER SERVICE TAUNTON MA 500 PM EDT FRI SEP 22 2017 NOTE: "FAIR" INDICATES FEW OR NO CLOUDS BELOW 12,000 FEET WITH NO SIGNIFICANT WEATHER AND/OR OBSTRUCTIONS TO VISIBILITY. MAZALL-222200- EASTERN MASSACHUSETTS CITY SKY/WX TMP DP RH WIND PRES REMARKS BOSTON DRIZZLE 60 58 92 N25G36 30.00R FOG BEVERLY LGT RAIN 60 58 92 N16G25 30.01R FOG LAWRENCE LGT RAIN 64 60 87 NE9 30.05R BEDFORD DRIZZLE 62 58 86 N12G20 30.01R BLUE HILL N/A 57 56 96 N20G33 29.98R NORWOOD LGT RAIN 61 59 93 N12G22 29.99S FOG MARSHFIELD FOG 61 61 100 N12G21 29.96R VSB 1 PLYMOUTH RAIN 60 57 89 N23G35 29.94R FOG TAUNTON LGT RAIN 60 57 89 N12G25 29.94S FOG NEW BEDFORD LGT RAIN 60 58 92 N16G25 29.90S FOG $$ MAZALL-222200- CAPE COD AND THE ISLANDS CITY SKY/WX TMP DP RH WIND PRES REMARKS FALMOUTH LGT RAIN 61 61 100 N16G29 29.89R VSB 1 HYANNIS LGT RAIN 62 61 96 NE20G30 29.84S VSB 1 CHATHAM LGT RAIN 61 61 100 NE15G32 29.86R FOG PROVINCETOWN LGT RAIN 59 59 100 NE21G28 29.92R FOG NANTUCKET LGT RAIN 62 62 100 NE24G33 29.79R FOG MARTHAS VNYRD LGT RAIN 63 61 93 N20G32 29.84S FOG $$ MAZALL-222200- CENTRAL AND WESTERN MASSACHUSETTS CITY SKY/WX TMP DP RH WIND PRES REMARKS WORCESTER LGT RAIN 63 54 72 N14G26 30.02R FITCHBURG CLOUDY 70 54 56 N10 30.03R ORANGE PTSUNNY 72 55 55 NE8 30.02S SPRINGFIELD PTSUNNY 75 57 52 NE16 29.97S WESTFIELD CLOUDY 77 54 44 N20G29 29.98F NORTH ADAMS CLOUDY 72 56 57 VRB3 30.04S PITTSFIELD CLOUDY 72 54 53 N9 30.04S $$ RIZALL-222200- RHODE ISLAND CITY SKY/WX TMP DP RH WIND PRES REMARKS PROVIDENCE LGT RAIN 61 60 97 N16 29.95S NEWPORT LGT RAIN 60 60 100 N17G30 29.91R FOG BLOCK ISLAND CLOUDY 61 58 90 N22G33 29.89S SMITHFIELD LGT RAIN 59 58 96 N21G26 29.98S WESTERLY CLOUDY 65 58 78 N15G29 29.92S $$ CTZALL-222200- CONNECTICUT CITY SKY/WX TMP DP RH WIND PRES REMARKS BRADLEY INTL PTSUNNY 76 54 46 N16G26 29.97S HARTFORD CLOUDY 76 56 49 N16G23 29.95S BRIDGEPORT MOSUNNY 80 59 48 N15G25 29.92S DANBURY SUNNY 79 57 46 N13G23 29.97F GROTON CLOUDY 67 58 72 N24G36 29.91S NEW HAVEN PTSUNNY 79 57 46 N23G31 29.92S CHESTER CLOUDY 73 59 60 N13 29.94S MERIDEN PTSUNNY 76 55 48 N14G28 29.94S WILLIMANTIC CLOUDY 70 60 70 NE10G22 29.96S OXFORD MOSUNNY 75 59 57 N13G22 29.97S $$ MEZ002-015-021-024-NHZ003-005-008-011-012-014-VTZ005-008-222200- NORTHERN NEW ENGLAND CITY SKY/WX TMP DP RH WIND PRES REMARKS PORTLAND ME PTSUNNY 70 50 49 NE9 30.05F BANGOR ME MOSUNNY 78 44 29 NE8 30.08S CONCORD NH PTSUNNY 73 50 44 N10G18 30.05F MANCHESTER NH CLOUDY 70 53 54 NE12 30.02S NASHUA NH CLOUDY 70 56 61 N8G17 30.04R PORTSMOUTH NH CLOUDY 65 55 69 NE13G21 30.03R JAFFREY NH PTSUNNY 69 53 56 VRB7G17 30.05F KEENE NH NOT AVBL BURLINGTON VT MOSUNNY 78 50 37 NW10 30.07F MT. WASHINGTON FOG 54 54 100 E13 N/A VSB 1/8 $$ NYZ052-076-222200- EASTERN NEW YORK CITY SKY/WX TMP DP RH WIND PRES REMARKS ALBANY MOSUNNY 77 50 38 N7 30.04F NEW YORK CITY MOSUNNY 80 56 43 N20G26 29.93F $$ ANZALL-222200- MARINE OBSERVATIONS STATION/POSITION TIME TEMP WIND PRES VSBY WAVE AIR SEA DIR/SP/G HT/PER (UTC) (F) (DEG/KT/KT) (MB) (MI) (FT/S) BOSTON BUOY 1950 59 58 20/ 25/ 29 1013.8 12/ 8 BUZZARDS BAY 2000 60 360/ 31/ 34 1010.9S NANTUCKET SOUND 1950 61 62 20/ 27/ 33 1008.6 6/ 5 MASS BAY-STELLWA 2004 59 59 30/ 25/ 31 1014.4S 12/11 ISLE OF SHOALS 2000 62 30/ 22/ 24 1016.2R S OF BLOCK IS NOT AVBL $$ ......................KEY......................... SKY/WX - SKY CONDITION/PRESENT WEATHER TMP - TEMPERATURE IN FAHRENHEIT DWPT - DEWPOINT IN FAHRENHEIT RH - RELATIVE HUMIDITY IN PERCENT WIND - DIRECTION AND SPEED IN MPH PRES - MEAN SEA LEVEL PRESSURE IN INCHES OF HG WCI - WIND CHILL INDEX VSB - VISIBILITY IN MILES HX - HEAT INDEX TC - TEMPERATURE IN CELSIUS VRB - VARIABLE WIND DIRECTION N/A - NOT AVAILABLE

USA.gov is the U.S. government's official web portal to all federal, state and local government web resources and services.